Location: Dodge City Community College Clyde Tombaugh Astronomy Center
(37.7756°N, 100.0412°W)
Time: 20:20:43
(UTC+00:00)

USA 215 - Pass Details

Date: 08 December 2021
Orbit: 1099 x 1109 km, 123.0° (Epoch: 14 January)

Event Time Altitude Azimuth Distance (km) Brightness Sun altitude
Rises 12:00:48 0° 102° (ESE) 3,912 7.8 -19.7°
Reaches altitude 10° 12:03:28 10° 94° (E) 2,955 6.7 -19.2°
Maximum altitude 12:09:17 36° 31° (NNE) 1,672 4.3 -18.0°
Enters shadow 12:14:33 12° 330° (NNW) 2,774 5.0 -17.0°
